WXM80 ListenWXM80 Stop

You find our weather info also at:

UK Metoffice

WeatherCloud

Weather Underground

Northeastern Weather Network

AWEKAS

Citizen Weather Observer Program (CWOP)

HAMweather, WeatherForYou, PWS Weather


Weather Underground History page Text

Daily Summary for October 24, 2017 Units:  English    Metric   Both
« Previous Day
Next Day »
Daily Weekly Monthly Yearly Custom
  High: Low: Average:
Temperature: 75.6 °F 66.7 °F 70 °F
Dew Point: 69.5 °F 65.5 °F 67.2 °F
Humidity: 98 % 80 % 91 %
Wind Speed: 14.1 mph 0.0 mph 4.8 mph
Wind Gust: 31.1 mph - -
Wind:- - South
Pressure: 30.01 in 29.75 in -
Precipitation: 2.34 in    
Historical Graphs
 
 
Tabular Data for October 24, 2017
Time Temperature Dew Point Pressure Wind Wind Speed Wind Gust Humidity Rainfall Rate (Hourly)
00:01 70.3 °F 65.9 °F 30.01 in SE 2.9 mph 13.0 mph 86 % 0.00 in
00:06 70.4 °F 66.0 °F 30.00 in SSE 6.0 mph 11.5 mph 86 % 0.00 in
00:11 70.4 °F 65.7 °F 30.00 in SE 9.9 mph 13.0 mph 85 % 0.00 in
00:16 70.5 °F 65.8 °F 29.99 in SSE 7.2 mph 15.0 mph 85 % 0.00 in
00:21 70.5 °F 65.8 °F 30.00 in SSE 7.5 mph 11.5 mph 85 % 0.00 in
00:26 70.5 °F 66.1 °F 30.00 in South 5.2 mph 9.2 mph 86 % 0.00 in
00:31 70.5 °F 65.8 °F 29.99 in SE 5.8 mph 11.5 mph 85 % 0.00 in
00:36 70.5 °F 65.8 °F 29.99 in South 2.0 mph 4.6 mph 85 % 0.00 in
00:41 70.4 °F 65.7 °F 29.98 in SE 5.7 mph 9.2 mph 85 % 0.00 in
00:52 70.3 °F 65.9 °F 29.99 in SE 4.8 mph 7.0 mph 86 % 0.00 in
00:57 70.3 °F 65.9 °F 29.99 in South 3.2 mph 10.4 mph 86 % 0.00 in
01:02 70.2 °F 65.8 °F 29.99 in SSE 4.0 mph 8.1 mph 86 % 0.00 in
01:07 70.2 °F 65.8 °F 30.00 in SSW 7.5 mph 15.0 mph 86 % 0.00 in
01:12 70.2 °F 66.1 °F 29.99 in SSW 11.5 mph 19.6 mph 87 % 0.00 in
01:17 70.2 °F 66.1 °F 29.99 in SE 5.9 mph 15.0 mph 87 % 0.00 in
01:22 70.1 °F 66.0 °F 29.98 in SSE 4.3 mph 6.9 mph 87 % 0.00 in
01:27 70.1 °F 66.0 °F 29.99 in SE 6.4 mph 18.4 mph 87 % 0.00 in
01:32 70.1 °F 66.0 °F 29.99 in SSW 5.5 mph 10.0 mph 87 % 0.00 in
01:37 70.0 °F 66.0 °F 29.99 in SE 1.5 mph 9.2 mph 87 % 0.00 in
01:42 70.0 °F 66.0 °F 29.99 in SE 5.4 mph 17.3 mph 87 % 0.00 in
01:44 70.0 °F 66.0 °F 29.98 in South 2.0 mph 12.7 mph 87 % 0.00 in
01:49 70.0 °F 66.0 °F 29.99 in South 3.9 mph 8.1 mph 87 % 0.00 in
01:54 69.9 °F 65.9 °F 29.99 in SE 4.4 mph 8.1 mph 87 % 0.00 in
01:59 69.8 °F 66.1 °F 29.99 in South 5.4 mph 8.1 mph 88 % 0.00 in
02:04 69.8 °F 66.1 °F 29.99 in South 4.2 mph 10.4 mph 88 % 0.00 in
02:09 69.7 °F 66.0 °F 29.99 in South 4.3 mph 6.0 mph 88 % 0.00 in
02:14 69.6 °F 65.9 °F 29.99 in South 5.0 mph 8.1 mph 88 % 0.00 in
02:19 69.6 °F 65.9 °F 29.99 in SSE 3.6 mph 9.0 mph 88 % 0.00 in
02:24 69.5 °F 66.1 °F 29.99 in SSW 5.2 mph 11.5 mph 89 % 0.00 in
02:29 69.4 °F 66.0 °F 29.99 in SSE 3.5 mph 11.5 mph 89 % 0.00 in
02:34 69.4 °F 66.0 °F 29.98 in SSE 3.5 mph 10.4 mph 89 % 0.00 in
02:40 69.4 °F 66.0 °F 29.98 in SSE 9.2 mph 16.1 mph 89 % 0.00 in
02:45 69.3 °F 65.9 °F 29.98 in South 1.9 mph 9.2 mph 89 % 0.00 in
02:50 69.3 °F 66.2 °F 29.97 in SE 3.2 mph 11.5 mph 90 % 0.00 in
02:55 69.3 °F 66.2 °F 29.97 in South 0.3 mph 2.3 mph 90 % 0.00 in
03:00 69.3 °F 66.2 °F 29.97 in SE 1.5 mph 18.4 mph 90 % 0.00 in
03:05 69.3 °F 66.6 °F 29.97 in SSE 4.2 mph 9.0 mph 91 % 0.00 in
03:10 69.3 °F 66.6 °F 29.96 in SSE 2.6 mph 11.5 mph 91 % 0.00 in
03:15 69.3 °F 66.6 °F 29.96 in SE 5.9 mph 13.8 mph 91 % 0.00 in
03:20 69.3 °F 66.6 °F 29.95 in SSE 5.4 mph 10.0 mph 91 % 0.00 in
03:25 69.2 °F 66.5 °F 29.95 in South 5.9 mph 13.8 mph 91 % 0.00 in
03:30 69.2 °F 66.5 °F 29.94 in East 3.6 mph 3.6 mph 91 % 0.00 in
03:35 69.2 °F 66.5 °F 29.93 in SE 6.1 mph 11.5 mph 91 % 0.00 in
03:40 69.1 °F 66.4 °F 29.92 in SSE 2.6 mph 9.0 mph 91 % 0.00 in
03:45 69.0 °F 66.3 °F 29.92 in SSE 4.6 mph 12.7 mph 91 % 0.00 in
03:50 69.0 °F 66.3 °F 29.92 in SSW 0.1 mph 11.5 mph 91 % 0.00 in
03:56 68.9 °F 66.5 °F 29.92 in SSE 7.0 mph 14.0 mph 92 % 0.00 in
04:01 68.9 °F 66.5 °F 29.92 in SSW 2.2 mph 6.9 mph 92 % 0.00 in
04:06 68.9 °F 66.5 °F 29.91 in South 3.0 mph 12.0 mph 92 % 0.00 in
04:11 68.9 °F 66.5 °F 29.92 in South 9.3 mph 18.4 mph 92 % 0.00 in
04:16 68.9 °F 66.5 °F 29.91 in SE 3.1 mph 10.4 mph 92 % 0.00 in
04:21 68.9 °F 66.5 °F 29.91 in SE 2.4 mph 4.6 mph 92 % 0.00 in
04:26 68.8 °F 66.4 °F 29.90 in SSE 5.0 mph 11.5 mph 92 % 0.00 in
04:32 68.9 °F 66.5 °F 29.90 in SSE 6.4 mph 13.8 mph 92 % 0.00 in
04:37 68.9 °F 66.5 °F 29.90 in SSE 3.4 mph 6.9 mph 92 % 0.00 in
04:42 68.9 °F 66.5 °F 29.89 in SSE 5.2 mph 8.1 mph 92 % 0.00 in
04:47 69.0 °F 66.6 °F 29.89 in South 5.9 mph 18.4 mph 92 % 0.00 in
04:52 69.2 °F 66.8 °F 29.89 in SSW 6.4 mph 11.5 mph 92 % 0.00 in
04:57 69.3 °F 66.6 °F 29.88 in ESE 9.3 mph 15.0 mph 91 % 0.00 in
05:02 69.3 °F 66.6 °F 29.87 in SSE 4.0 mph 21.9 mph 91 % 0.00 in
05:07 69.4 °F 66.7 °F 29.87 in East 6.3 mph 11.5 mph 91 % 0.00 in
05:12 69.5 °F 66.8 °F 29.87 in South 6.4 mph 20.7 mph 91 % 0.00 in
05:17 69.6 °F 66.9 °F 29.87 in South 9.1 mph 11.0 mph 91 % 0.00 in
05:22 69.7 °F 67.0 °F 29.88 in SSE 4.6 mph 12.7 mph 91 % 0.00 in
05:28 69.7 °F 67.0 °F 29.88 in SE 7.7 mph 13.0 mph 91 % 0.00 in
05:33 69.8 °F 67.1 °F 29.88 in South 5.2 mph 16.1 mph 91 % 0.00 in
05:38 69.9 °F 67.2 °F 29.88 in SSE 6.0 mph 18.4 mph 91 % 0.00 in
05:43 70.1 °F 67.0 °F 29.89 in SSE 8.9 mph 16.1 mph 90 % 0.00 in
05:48 70.2 °F 67.1 °F 29.89 in SE 5.9 mph 13.8 mph 90 % 0.00 in
05:53 70.2 °F 67.1 °F 29.89 in South 6.4 mph 16.1 mph 90 % 0.00 in
05:58 70.4 °F 67.0 °F 29.89 in SE 9.8 mph 17.3 mph 89 % 0.00 in
06:03 70.5 °F 67.1 °F 29.89 in SSE 5.9 mph 16.1 mph 89 % 0.00 in
06:08 70.6 °F 67.2 °F 29.89 in SE 4.3 mph 9.2 mph 89 % 0.00 in
06:13 70.7 °F 67.3 °F 29.89 in SSE 9.7 mph 13.8 mph 89 % 0.00 in
06:18 70.7 °F 67.0 °F 29.89 in South 7.6 mph 10.4 mph 88 % 0.00 in
06:23 70.7 °F 67.0 °F 29.88 in SSE 4.4 mph 15.0 mph 88 % 0.00 in
06:29 70.8 °F 67.1 °F 29.89 in South 3.7 mph 19.6 mph 88 % 0.00 in
06:34 70.7 °F 67.0 °F 29.88 in SSE 8.8 mph 12.7 mph 88 % 0.00 in
06:39 70.8 °F 67.1 °F 29.88 in SSE 7.1 mph 18.4 mph 88 % 0.00 in
06:44 70.8 °F 67.1 °F 29.87 in ESE 8.1 mph 18.4 mph 88 % 0.00 in
06:49 70.8 °F 67.1 °F 29.87 in SSE 11.0 mph 20.7 mph 88 % 0.00 in
06:54 70.8 °F 67.1 °F 29.86 in SE 6.0 mph 10.4 mph 88 % 0.00 in
06:59 70.9 °F 67.2 °F 29.86 in SSE 3.4 mph 17.3 mph 88 % 0.00 in
07:04 70.9 °F 67.2 °F 29.86 in SE 6.5 mph 13.8 mph 88 % 0.00 in
07:09 70.9 °F 67.2 °F 29.86 in ESE 9.1 mph 14.0 mph 88 % 0.00 in
07:15 70.9 °F 67.2 °F 29.86 in SSW 11.7 mph 24.2 mph 88 % 0.00 in
07:20 71.0 °F 67.3 °F 29.85 in SE 7.6 mph 18.4 mph 88 % 0.00 in
07:25 71.0 °F 67.3 °F 29.86 in South 4.1 mph 21.9 mph 88 % 0.00 in
07:30 71.0 °F 67.3 °F 29.86 in South 8.0 mph 20.0 mph 88 % 0.00 in
07:35 70.9 °F 67.2 °F 29.86 in SSW 10.0 mph 18.4 mph 88 % 0.00 in
07:40 71.0 °F 67.3 °F 29.87 in South 4.1 mph 10.4 mph 88 % 0.00 in
07:45 71.0 °F 67.3 °F 29.87 in SSW 5.5 mph 12.7 mph 88 % 0.00 in
07:50 71.0 °F 67.3 °F 29.87 in SE 7.4 mph 12.7 mph 88 % 0.00 in
07:55 70.9 °F 67.5 °F 29.88 in South 12.1 mph 17.3 mph 89 % 0.00 in
08:00 70.7 °F 67.6 °F 29.88 in SSE 6.0 mph 18.0 mph 90 % 0.00 in
08:05 70.4 °F 67.6 °F 29.88 in SSE 6.9 mph 10.4 mph 91 % 0.00 in
08:10 70.1 °F 67.3 °F 29.88 in SSE 9.0 mph 13.0 mph 91 % 0.01 in
08:15 69.9 °F 67.5 °F 29.88 in SSE 5.4 mph 5.8 mph 92 % 0.01 in
08:21 69.8 °F 67.4 °F 29.88 in SSE 5.0 mph 15.0 mph 92 % 0.00 in
08:26 69.8 °F 67.4 °F 29.88 in SSE 6.0 mph 13.0 mph 92 % 0.00 in
08:31 69.8 °F 67.7 °F 29.88 in SSE 7.0 mph 16.0 mph 93 % 0.00 in
08:36 69.9 °F 67.8 °F 29.89 in SSE 6.0 mph 14.0 mph 93 % 0.00 in
08:41 70.0 °F 67.9 °F 29.89 in SSE 6.0 mph 22.0 mph 93 % 0.00 in
08:46 70.1 °F 68.0 °F 29.88 in South 6.0 mph 15.0 mph 93 % 0.00 in
08:51 70.3 °F 67.9 °F 29.88 in SSE 9.0 mph 22.0 mph 92 % 0.00 in
08:56 70.4 °F 68.0 °F 29.87 in SSE 9.0 mph 23.0 mph 92 % 0.00 in
09:01 70.5 °F 67.7 °F 29.88 in South 5.0 mph 15.0 mph 91 % 0.01 in
09:06 70.7 °F 67.9 °F 29.87 in South 5.9 mph 19.6 mph 91 % 0.01 in
09:11 70.7 °F 67.6 °F 29.88 in SE 4.7 mph 10.4 mph 90 % 0.00 in
09:16 70.7 °F 67.6 °F 29.88 in SE 2.8 mph 5.0 mph 90 % 0.00 in
09:21 70.7 °F 67.6 °F 29.88 in SSW 5.5 mph 13.8 mph 90 % 0.00 in
09:26 70.8 °F 67.7 °F 29.87 in SSE 4.9 mph 11.0 mph 90 % 0.00 in
09:31 70.8 °F 67.7 °F 29.87 in SSW 4.4 mph 11.5 mph 90 % 0.00 in
09:36 71.0 °F 67.6 °F 29.87 in SE 5.4 mph 11.5 mph 89 % 0.00 in
09:41 71.3 °F 67.9 °F 29.87 in ESE 3.9 mph 9.0 mph 89 % 0.00 in
09:46 71.5 °F 68.1 °F 29.87 in SE 4.2 mph 9.0 mph 89 % 0.00 in
09:51 71.8 °F 68.4 °F 29.87 in SSW 4.9 mph 10.4 mph 89 % 0.00 in
09:56 72.1 °F 68.3 °F 29.86 in SE 4.2 mph 9.2 mph 88 % 0.00 in
10:01 72.5 °F 68.4 °F 29.87 in SSE 6.8 mph 16.1 mph 87 % 0.00 in
10:06 72.6 °F 68.2 °F 29.87 in SSE 7.0 mph 15.0 mph 86 % 0.00 in
10:11 72.7 °F 67.9 °F 29.87 in SSE 6.9 mph 19.6 mph 85 % 0.00 in
10:16 72.9 °F 68.1 °F 29.87 in South 3.0 mph 11.5 mph 85 % 0.00 in
10:21 72.9 °F 68.1 °F 29.87 in SSW 4.9 mph 15.0 mph 85 % 0.00 in
10:26 72.9 °F 68.1 °F 29.87 in SE 4.4 mph 17.3 mph 85 % 0.00 in
10:32 72.9 °F 68.1 °F 29.87 in South 4.0 mph 9.2 mph 85 % 0.00 in
10:37 72.9 °F 68.1 °F 29.87 in SW 6.8 mph 19.6 mph 85 % 0.00 in
10:42 72.8 °F 68.0 °F 29.86 in South 12.7 mph 20.7 mph 85 % 0.00 in
10:47 72.6 °F 67.8 °F 29.86 in SE 3.6 mph 11.5 mph 85 % 0.00 in
10:52 72.5 °F 67.7 °F 29.86 in SSE 9.4 mph 20.7 mph 85 % 0.00 in
10:57 72.4 °F 67.6 °F 29.86 in SE 9.4 mph 16.1 mph 85 % 0.00 in
11:02 72.4 °F 68.0 °F 29.86 in SE 5.3 mph 16.1 mph 86 % 0.00 in
11:07 72.4 °F 68.0 °F 29.86 in SSE 3.1 mph 17.3 mph 86 % 0.00 in
11:12 72.5 °F 67.7 °F 29.86 in SSW 6.0 mph 23.0 mph 85 % 0.00 in
11:17 72.6 °F 67.8 °F 29.86 in SE 7.8 mph 15.0 mph 85 % 0.00 in
11:22 72.8 °F 68.0 °F 29.86 in South 6.7 mph 21.9 mph 85 % 0.00 in
11:27 72.9 °F 68.1 °F 29.86 in ESE 14.1 mph 26.5 mph 85 % 0.00 in
11:32 73.0 °F 68.2 °F 29.85 in South 5.2 mph 11.5 mph 85 % 0.00 in
11:37 73.1 °F 68.3 °F 29.86 in SE 4.6 mph 11.0 mph 85 % 0.00 in
11:42 73.3 °F 68.5 °F 29.85 in SE 3.7 mph 11.5 mph 85 % 0.00 in
11:47 73.4 °F 68.6 °F 29.85 in SSE 3.4 mph 9.0 mph 85 % 0.00 in
11:52 73.5 °F 68.4 °F 29.84 in South 3.7 mph 6.9 mph 84 % 0.00 in
11:57 73.9 °F 68.8 °F 29.85 in SE 8.5 mph 31.1 mph 84 % 0.00 in
12:02 74.5 °F 69.0 °F 29.84 in South 4.8 mph 19.6 mph 83 % 0.00 in
12:07 75.0 °F 69.5 °F 29.86 in South 6.1 mph 8.0 mph 83 % 0.00 in
12:12 75.3 °F 69.1 °F 29.86 in SE 5.0 mph 19.6 mph 81 % 0.00 in
12:17 75.6 °F 69.0 °F 29.85 in SE 3.2 mph 10.4 mph 80 % 0.00 in
12:22 75.4 °F 68.8 °F 29.85 in South 10.0 mph 23.0 mph 80 % 0.00 in
12:27 75.2 °F 69.0 °F 29.85 in SSE 3.3 mph 12.7 mph 81 % 0.00 in
12:37 75.1 °F 68.9 °F 29.83 in South 6.4 mph 18.4 mph 81 % 0.00 in
12:43 75.2 °F 69.0 °F 29.83 in SSW 5.9 mph 17.3 mph 81 % 0.00 in
12:48 75.2 °F 69.0 °F 29.83 in SSE 4.0 mph 11.5 mph 81 % 0.00 in
12:53 75.1 °F 68.9 °F 29.83 in SSE 3.5 mph 12.7 mph 81 % 0.00 in
12:58 75.1 °F 68.9 °F 29.83 in South 6.2 mph 19.6 mph 81 % 0.00 in
13:03 75.0 °F 68.8 °F 29.83 in SSW 6.9 mph 16.1 mph 81 % 0.00 in
13:08 74.9 °F 69.0 °F 29.83 in SSW 7.4 mph 12.7 mph 82 % 0.00 in
13:13 74.8 °F 68.6 °F 29.83 in SE 6.5 mph 12.0 mph 81 % 0.00 in
13:18 74.7 °F 68.8 °F 29.82 in SE 3.7 mph 12.7 mph 82 % 0.00 in
13:23 74.6 °F 68.7 °F 29.83 in SE 5.5 mph 10.4 mph 82 % 0.00 in
13:28 74.7 °F 68.8 °F 29.82 in SE 6.0 mph 11.5 mph 82 % 0.00 in
13:33 74.8 °F 68.9 °F 29.82 in SE 5.8 mph 15.0 mph 82 % 0.00 in
13:38 74.9 °F 69.0 °F 29.82 in SSW 7.4 mph 17.3 mph 82 % 0.00 in
13:43 74.9 °F 69.0 °F 29.82 in SE 4.4 mph 8.0 mph 82 % 0.00 in
13:48 74.8 °F 68.9 °F 29.82 in South 8.1 mph 17.3 mph 82 % 0.00 in
13:53 74.6 °F 69.1 °F 29.82 in SE 9.3 mph 21.9 mph 83 % 0.00 in
13:58 74.3 °F 68.8 °F 29.82 in SE 6.3 mph 11.5 mph 83 % 0.00 in
14:03 74.0 °F 68.9 °F 29.81 in SSW 5.0 mph 8.1 mph 84 % 0.00 in
14:09 73.7 °F 68.6 °F 29.81 in SSE 12.2 mph 26.0 mph 84 % 0.00 in
14:14 73.4 °F 68.6 °F 29.81 in SSE 7.9 mph 19.6 mph 85 % 0.00 in
14:19 72.9 °F 68.8 °F 29.82 in WSW 6.8 mph 13.8 mph 87 % 0.01 in
14:24 72.0 °F 68.6 °F 29.81 in South 5.8 mph 17.3 mph 89 % 0.02 in
14:29 71.3 °F 68.5 °F 29.82 in SSW 4.6 mph 9.2 mph 91 % 0.04 in
14:34 71.1 °F 68.7 °F 29.81 in SSE 5.2 mph 11.5 mph 92 % 0.06 in
14:39 70.8 °F 68.4 °F 29.82 in SSW 5.2 mph 13.8 mph 92 % 0.09 in
14:44 70.6 °F 68.5 °F 29.81 in South 7.3 mph 9.2 mph 93 % 0.11 in
14:49 70.5 °F 68.4 °F 29.81 in South 7.3 mph 17.3 mph 93 % 0.13 in
14:54 70.3 °F 68.5 °F 29.81 in SSW 2.9 mph 12.7 mph 94 % 0.16 in
14:59 70.2 °F 68.4 °F 29.81 in South 4.6 mph 8.1 mph 94 % 0.18 in
15:04 70.1 °F 68.3 °F 29.81 in SSW 2.8 mph 4.6 mph 94 % 0.20 in
15:09 70.0 °F 68.2 °F 29.81 in SE 5.2 mph 10.4 mph 94 % 0.22 in
15:14 69.9 °F 68.1 °F 29.81 in SSE 4.3 mph 7.0 mph 94 % 0.23 in
15:19 69.9 °F 68.1 °F 29.81 in South 8.4 mph 9.2 mph 94 % 0.23 in
15:24 69.8 °F 68.3 °F 29.82 in SE 3.5 mph 12.7 mph 95 % 0.23 in
15:29 69.7 °F 68.2 °F 29.82 in SSW 2.6 mph 9.2 mph 95 % 0.21 in
15:35 69.6 °F 68.1 °F 29.81 in SSW 4.3 mph 11.5 mph 95 % 0.20 in
15:40 69.4 °F 67.9 °F 29.80 in SSW 2.8 mph 10.4 mph 95 % 0.17 in
15:45 69.3 °F 67.8 °F 29.81 in SSE 6.7 mph 11.5 mph 95 % 0.14 in
15:50 69.2 °F 67.7 °F 29.80 in SSW 6.4 mph 16.1 mph 95 % 0.12 in
15:51 69.1 °F 67.6 °F 29.81 in SE 4.1 mph 9.2 mph 95 % 0.12 in
15:56 69.1 °F 67.6 °F 29.82 in SSE 1.7 mph 11.5 mph 95 % 0.10 in
16:01 68.9 °F 67.4 °F 29.82 in South 2.5 mph 6.9 mph 95 % 0.07 in
16:06 68.9 °F 67.4 °F 29.83 in SSW 4.3 mph 11.5 mph 95 % 0.05 in
16:12 68.7 °F 67.2 °F 29.82 in South 5.2 mph 11.5 mph 95 % 0.03 in
16:17 68.6 °F 67.1 °F 29.82 in SSW 3.4 mph 11.5 mph 95 % 0.02 in
16:22 68.6 °F 67.1 °F 29.81 in South 5.0 mph 19.6 mph 95 % 0.01 in
16:27 68.5 °F 67.3 °F 29.81 in SE 5.0 mph 11.5 mph 96 % 0.01 in
16:32 68.4 °F 67.2 °F 29.81 in ESE 6.2 mph 11.5 mph 96 % 0.00 in
16:37 68.4 °F 67.2 °F 29.81 in SE 3.0 mph 6.0 mph 96 % 0.00 in
16:42 68.4 °F 67.2 °F 29.81 in SE 4.2 mph 12.0 mph 96 % 0.00 in
16:47 68.3 °F 67.1 °F 29.80 in South 5.2 mph 13.8 mph 96 % 0.00 in
16:52 68.3 °F 67.1 °F 29.81 in South 4.2 mph 10.4 mph 96 % 0.00 in
16:57 68.4 °F 67.2 °F 29.80 in SSW 2.0 mph 16.1 mph 96 % 0.00 in
17:02 68.5 °F 67.3 °F 29.80 in SE 2.2 mph 4.6 mph 96 % 0.00 in
17:07 68.6 °F 67.4 °F 29.80 in SE 2.9 mph 6.9 mph 96 % 0.00 in
17:12 68.6 °F 67.4 °F 29.80 in SSW 4.5 mph 10.4 mph 96 % 0.00 in
17:17 68.6 °F 67.4 °F 29.80 in SSE 2.8 mph 6.9 mph 96 % 0.00 in
17:22 68.6 °F 67.4 °F 29.80 in South 2.3 mph 9.2 mph 96 % 0.00 in
17:28 68.6 °F 67.4 °F 29.80 in South 6.8 mph 15.0 mph 96 % 0.00 in
17:33 68.5 °F 67.3 °F 29.80 in SSE 7.2 mph 16.0 mph 96 % 0.00 in
17:38 68.5 °F 67.3 °F 29.80 in SE 6.5 mph 11.5 mph 96 % 0.00 in
17:43 68.5 °F 67.3 °F 29.80 in SSE 8.0 mph 19.6 mph 96 % 0.00 in
17:48 68.6 °F 67.4 °F 29.79 in South 7.8 mph 13.8 mph 96 % 0.00 in
17:53 68.6 °F 67.4 °F 29.80 in SSE 0.8 mph 3.5 mph 96 % 0.00 in
17:58 68.7 °F 67.5 °F 29.80 in SSE 4.8 mph 9.0 mph 96 % 0.00 in
18:03 68.7 °F 67.5 °F 29.79 in SE 5.6 mph 11.5 mph 96 % 0.00 in
18:08 68.7 °F 67.5 °F 29.80 in South 4.1 mph 12.0 mph 96 % 0.00 in
18:13 68.7 °F 67.5 °F 29.80 in South 1.2 mph 6.9 mph 96 % 0.00 in
18:18 68.7 °F 67.5 °F 29.80 in SSW 1.7 mph 3.5 mph 96 % 0.00 in
18:23 68.7 °F 67.5 °F 29.80 in South 3.3 mph 4.6 mph 96 % 0.00 in
18:28 68.7 °F 67.5 °F 29.80 in SE 6.1 mph 17.3 mph 96 % 0.00 in
18:33 68.7 °F 67.5 °F 29.81 in SSW 3.6 mph 6.9 mph 96 % 0.00 in
18:38 68.7 °F 67.5 °F 29.81 in SE 5.5 mph 6.9 mph 96 % 0.00 in
18:43 68.7 °F 67.5 °F 29.81 in SSW 1.1 mph 4.6 mph 96 % 0.00 in
18:49 68.7 °F 67.5 °F 29.81 in SSE 6.4 mph 12.0 mph 96 % 0.00 in
18:54 68.7 °F 67.5 °F 29.81 in SE 4.7 mph 11.5 mph 96 % 0.00 in
18:59 68.7 °F 67.5 °F 29.81 in SSW 2.9 mph 11.5 mph 96 % 0.00 in
19:04 68.7 °F 67.5 °F 29.81 in SSW 7.6 mph 13.8 mph 96 % 0.00 in
19:09 68.6 °F 67.4 °F 29.80 in SE 5.6 mph 8.1 mph 96 % 0.00 in
19:14 68.6 °F 67.4 °F 29.81 in SSW 4.5 mph 9.2 mph 96 % 0.00 in
19:19 68.5 °F 67.3 °F 29.80 in WSW 3.0 mph 8.1 mph 96 % 0.00 in
19:24 68.5 °F 67.3 °F 29.80 in SW 2.3 mph 5.0 mph 96 % 0.00 in
19:29 68.5 °F 67.3 °F 29.81 in SW 1.2 mph 3.5 mph 96 % 0.00 in
19:34 68.5 °F 67.3 °F 29.81 in SSW 2.9 mph 6.0 mph 96 % 0.00 in
19:39 68.5 °F 67.3 °F 29.80 in South 3.1 mph 11.5 mph 96 % 0.00 in
19:44 68.4 °F 67.2 °F 29.80 in SSW 3.5 mph 5.8 mph 96 % 0.00 in
19:49 68.4 °F 67.2 °F 29.80 in SW 0.9 mph 3.5 mph 96 % 0.00 in
19:54 68.3 °F 67.1 °F 29.80 in SSW 3.3 mph 6.0 mph 96 % 0.00 in
19:59 68.2 °F 67.0 °F 29.80 in SW 0.2 mph 1.2 mph 96 % 0.00 in
20:04 68.2 °F 67.0 °F 29.80 in SSE 0.4 mph 3.5 mph 96 % 0.01 in
20:09 68.1 °F 66.9 °F 29.82 in SW 4.5 mph 5.8 mph 96 % 0.01 in
20:15 68.0 °F 66.8 °F 29.79 in WSW 2.2 mph 5.8 mph 96 % 0.03 in
20:20 67.8 °F 66.6 °F 29.78 in SW 0.8 mph 4.6 mph 96 % 0.07 in
20:25 67.7 °F 66.5 °F 29.78 in SSW 2.0 mph 4.6 mph 96 % 0.13 in
20:30 67.6 °F 66.4 °F 29.78 in SSE 2.2 mph 3.5 mph 96 % 0.18 in
20:31 67.6 °F 66.4 °F 29.78 in South 2.0 mph 7.0 mph 96 % 0.02 in
20:36 67.6 °F 66.4 °F 29.78 in South 2.0 mph 12.0 mph 96 % 0.02 in
20:41 67.5 °F 66.3 °F 29.79 in South 3.0 mph 12.0 mph 96 % 0.02 in
20:46 67.5 °F 66.6 °F 29.78 in SSW 4.9 mph 11.5 mph 97 % 0.43 in
20:51 67.5 °F 66.6 °F 29.79 in SW 1.0 mph 6.0 mph 97 % 0.02 in
20:56 67.5 °F 66.6 °F 29.80 in SW 5.0 mph 9.0 mph 97 % 0.01 in
21:01 67.5 °F 66.6 °F 29.79 in South 4.7 mph 13.8 mph 97 % 0.65 in
21:06 67.5 °F 66.6 °F 29.80 in SW 6.0 mph 14.0 mph 97 % 0.01 in
21:11 67.3 °F 66.4 °F 29.81 in SW 3.0 mph 10.0 mph 97 % 0.01 in
21:16 67.1 °F 66.2 °F 29.80 in SW 3.0 mph 10.0 mph 97 % 0.01 in
21:21 66.9 °F 65.7 °F 29.80 in SW 2.0 mph 9.0 mph 96 % 0.02 in
21:26 66.8 °F 65.6 °F 29.81 in SSW 0.9 mph 3.0 mph 96 % 0.90 in
21:31 66.7 °F 65.5 °F 29.81 in Calm   4.0 mph 96 % 0.01 in
21:36 66.7 °F 65.8 °F 29.80 in Calm   1.2 mph 97 % 0.92 in
21:41 66.7 °F 65.8 °F 29.80 in Calm   4.0 mph 97 % 0.01 in
21:46 66.7 °F 65.8 °F 29.80 in SW 1.0 mph 2.0 mph 97 % 0.87 in
21:51 66.7 °F 65.8 °F 29.80 in SW 2.0 mph 4.0 mph 97 % 0.02 in
21:56 66.7 °F 65.8 °F 29.80 in SW 2.0 mph 6.0 mph 97 % 0.02 in
22:01 66.8 °F 65.9 °F 29.78 in West 3.4 mph 6.9 mph 97 % 0.82 in
22:06 66.8 °F 65.9 °F 29.79 in WSW 2.0 mph 7.0 mph 97 % 0.01 in
22:11 66.9 °F 66.0 °F 29.79 in Calm   2.3 mph 97 % 0.78 in
22:16 67.0 °F 66.1 °F 29.79 in SW 1.0 mph 4.0 mph 97 % 0.01 in
22:21 67.1 °F 66.2 °F 29.79 in SSW 2.0 mph 5.0 mph 97 % 0.01 in
22:26 67.2 °F 66.6 °F 29.78 in Calm   7.0 mph 98 % 0.01 in
22:31 67.3 °F 66.7 °F 29.78 in South 2.0 mph 4.0 mph 98 % 0.01 in
22:36 67.4 °F 66.5 °F 29.77 in Calm   4.0 mph 97 % 0.01 in
22:41 67.4 °F 66.5 °F 29.76 in SSW 2.0 mph 4.0 mph 97 % 0.00 in
22:46 67.3 °F 66.4 °F 29.76 in SW 1.0 mph 4.0 mph 97 % 0.00 in
22:51 67.4 °F 66.5 °F 29.77 in Calm   1.2 mph 97 % 0.58 in
22:56 67.4 °F 66.8 °F 29.76 in Calm   3.0 mph 98 % 0.01 in
23:01 67.4 °F 66.5 °F 29.76 in Calm   1.2 mph 97 % 0.51 in
23:06 67.5 °F 66.6 °F 29.76 in SSW 2.0 mph 4.6 mph 97 % 0.46 in
23:11 67.6 °F 67.0 °F 29.76 in ESE 0.7 mph 8.0 mph 98 % 0.42 in
23:16 67.7 °F 67.1 °F 29.76 in SSE 2.8 mph 8.1 mph 98 % 0.39 in
23:21 67.9 °F 67.3 °F 29.76 in SW 0.3 mph 2.3 mph 98 % 0.34 in
23:26 67.9 °F 67.3 °F 29.76 in SW 1.9 mph 5.8 mph 98 % 0.29 in
23:31 68.0 °F 67.4 °F 29.76 in SSW 1.8 mph 5.8 mph 98 % 0.25 in
23:36 68.0 °F 67.4 °F 29.75 in West 0.5 mph 2.3 mph 98 % 0.20 in
23:41 68.0 °F 67.4 °F 29.75 in SW 2.6 mph 4.6 mph 98 % 0.17 in
23:46 68.1 °F 67.5 °F 29.76 in SSW 1.7 mph 4.0 mph 98 % 0.14 in
23:51 68.1 °F 67.5 °F 29.76 in SE 1.4 mph 3.0 mph 98 % 0.12 in
23:56 68.1 °F 67.5 °F 29.76 in SSW 0.4 mph 2.3 mph 98 % 0.09 in
Crab Meadow Weather
Compliments of Weather Underground - 3 mb

Script developed by  Jim McMurry - jmcmurry@mwt.net Adapted for the template by  Wim van der Kuil - Leuven-Template.eu

Lightning: The average number of deaths from lightning is more than 100 a year with several more deaths from lightning related fires. Lightning injuries account for 3-5 times than those of lightning deaths.